Watertown, SD

3:51 AM CDT on March 27, 2017 (GMT -0500)
Watertown Municipal

Weather History for KATY - February, 2014

Change the Weather History Date:

Saturday, February 1, 2014

  Actual Average Record
Temperature  
Mean Temperature 5 °F 14 °F  
Max Temperature 14 °F 24 °F 58 °F (1931)
Min Temperature -5 °F 4 °F -33 °F (1905)
Degree Days  
Heating Degree Days 60 51  
Month to date heating degree days 60 51  
Since 1 July heating degree days 5402 5133  
Cooling Degree Days 0 0  
Month to date cooling degree days 0 0  
Year to date cooling degree days 0 0  
Moisture  
Dew Point 0 °F    
Average Humidity 84    
Maximum Humidity 92    
Minimum Humidity 76    
Precipitation  
Precipitation 0.00 in 0.02 in 0.56 in (1939)
Month to date precipitation 0.00 0.02  
Year to date precipitation 0.30 0.54  
Snow  
Snow 0.00 in - - ()
Month to date snowfall 0.0  
Since 1 July snowfall 16.1  
Snow Depth 10.00 in    
Sea Level Pressure  
Sea Level Pressure 30.09 in    
Wind  
Wind Speed 13 mph (WNW)    
Max Wind Speed 24 mph    
Max Gust Speed 29 mph    
Visibility 10 miles    
Events      
T = Trace of Precipitation, MM = Missing Value Source: NWS Daily Summary

Daily Weather History Graph

Daily Weather History Graph

Search for Another Location

Airport or City:

Trip Planner

Search our weather history database for the weather conditions in past years. The results will help you decide how hot, cold, wet, or windy it might be!

Date:

Astronomy

Feb. 01, 2014 Rise Set
Actual Time 7:48 AM CST 5:36 PM CST
Civil Twilight 7:16 AM CST 6:08 PM CST
Nautical Twilight 6:41 AM CST 6:43 PM CST
Astronomical Twilight 6:07 AM CST 7:17 PM CST
Moon 8:30 AM CST (2/1) 8:22 PM CST (2/1)
Length of Visible Light 10h 51m
Length of Day
9h 48m
Waxing Crescent, 5% of the Moon is Illuminated
Feb 1
Waxing Crescent
Feb 6
First Quarter
Feb 14
Full
Feb 22
Last Quarter
Mar 1
New

Hourly Weather History & Observations

Time (CST) Temp. Windchill Dew Point Humidity Pressure Visibility Wind Dir Wind Speed Gust Speed Precip Events Conditions
12:53 AM 12.9 °F -1.6 °F 7.0 °F 77% 29.90 in 10.0 mi South 12.7 mph - N/A   Scattered Clouds
1:53 AM 12.0 °F 2.7 °F 8.1 °F 84% 29.88 in 10.0 mi SSW 5.8 mph - N/A   Clear
2:53 AM 10.9 °F -3.4 °F 8.1 °F 88% 29.90 in 10.0 mi SW 11.5 mph - N/A   Clear
3:53 AM 12.0 °F -4.5 °F 8.1 °F 84% 29.92 in 10.0 mi WNW 16.1 mph - N/A   Clear
4:53 AM 9.0 °F -7.9 °F 5.0 °F 84% 29.95 in 10.0 mi NW 15.0 mph - N/A   Clear
5:12 AM 8.1 °F -11.2 °F 3.9 °F 83% 29.85 in 10.0 mi NW 19.6 mph - N/A   Scattered Clouds
5:21 AM 8.1 °F -10.2 °F 3.9 °F 83% 29.86 in 10.0 mi NW 17.3 mph - N/A   Mostly Cloudy
5:28 AM 8.1 °F -11.7 °F 3.9 °F 83% 29.87 in 10.0 mi NW 20.7 mph 26.5 mph N/A   Mostly Cloudy
5:51 AM 8.6 °F -11.4 °F 3.2 °F 79% 29.88 in 10.0 mi NW 21.9 mph - N/A   Partly Cloudy
5:53 AM 8.1 °F -12.6 °F 3.0 °F 80% 30.00 in 10.0 mi NW 23.0 mph - N/A   Partly Cloudy
6:53 AM 5.0 °F -14.2 °F 1.0 °F 84% 30.03 in 10.0 mi NW 17.3 mph - N/A   Clear
7:53 AM 3.0 °F -16.7 °F -0.9 °F 84% 30.06 in 10.0 mi NW 17.3 mph - N/A   Clear
8:53 AM 1.9 °F -18.7 °F -2.0 °F 83% 30.09 in 9.0 mi NW 18.4 mph - N/A   Scattered Clouds
9:25 AM 3.0 °F -17.3 °F -2.0 °F 80% 29.98 in 10.0 mi NW 18.4 mph - N/A   Mostly Cloudy
9:53 AM 3.0 °F -17.3 °F -0.9 °F 84% 30.13 in 9.0 mi NW 18.4 mph - N/A   Overcast
10:49 AM 5.0 °F -14.7 °F -0.4 °F 78% 30.02 in 10.0 mi NNW 18.4 mph - N/A   Mostly Cloudy
10:53 AM 5.0 °F -15.2 °F -0.9 °F 76% 30.14 in 10.0 mi NW 19.6 mph - N/A   Mostly Cloudy
11:04 AM 5.0 °F -16.7 °F -0.9 °F 76% 30.03 in 9.0 mi NNW 23.0 mph - N/A   Mostly Cloudy
11:53 AM 5.0 °F -14.2 °F -0.9 °F 76% 30.17 in 8.0 mi NNW 17.3 mph - N/A   Overcast
12:13 PM 6.1 °F -12.8 °F -0.0 °F 76% 30.05 in 6.0 mi NNW 17.3 mph - N/A   Haze
12:53 PM 6.1 °F -11.6 °F -0.0 °F 76% 30.17 in 8.0 mi NW 15.0 mph - N/A   Overcast
1:53 PM 6.1 °F -12.2 °F -0.0 °F 76% 30.18 in 10.0 mi NNW 16.1 mph - N/A   Mostly Cloudy
2:53 PM 6.1 °F -11.6 °F -0.0 °F 76% 30.19 in 10.0 mi NW 15.0 mph - N/A   Overcast
3:25 PM 5.0 °F -11.6 °F -2.0 °F 73% 30.08 in 10.0 mi NW 12.7 mph - N/A   Scattered Clouds
3:53 PM 6.1 °F -10.2 °F -0.9 °F 73% 30.21 in 9.0 mi NW 12.7 mph - N/A   Mostly Cloudy
4:53 PM 3.9 °F -12.2 °F -2.0 °F 76% 30.24 in 10.0 mi NW 11.5 mph - N/A   Scattered Clouds
5:02 PM 3.9 °F -13.0 °F -2.0 °F 76% 30.12 in 9.0 mi NW 12.7 mph - N/A   Mostly Cloudy
5:09 PM 3.9 °F -12.2 °F -2.0 °F 76% 30.12 in 10.0 mi NW 11.5 mph - N/A   Scattered Clouds
5:53 PM 1.9 °F -12.9 °F -4.0 °F 76% 30.25 in 10.0 mi WNW 9.2 mph - N/A   Clear
6:53 PM 1.0 °F -12.9 °F -4.0 °F 79% 30.27 in 10.0 mi WNW 8.1 mph - N/A   Clear
7:53 PM -0.0 °F -15.3 °F -4.0 °F 83% 30.29 in 10.0 mi WNW 9.2 mph - N/A   Clear
8:51 PM -2.2 °F -14.2 °F -5.8 °F 85% 30.17 in 10.0 mi WSW 5.8 mph - N/A   Mostly Cloudy
8:53 PM -4.0 °F -16.3 °F -7.1 °F 87% 30.31 in 10.0 mi WSW 5.8 mph - N/A   Mostly Cloudy
9:53 PM -2.0 °F -13.9 °F -5.1 °F 87% 30.31 in 10.0 mi WSW 5.8 mph - N/A   Overcast
10:40 PM -0.9 °F -16.4 °F -6.0 °F 79% 30.16 in 10.0 mi West 9.2 mph - N/A   Scattered Clouds
10:53 PM -2.9 °F -16.5 °F -7.1 °F 82% 30.30 in 10.0 mi West 6.9 mph - N/A   Clear
11:53 PM -4.0 °F -19.0 °F -7.1 °F 87% 30.31 in 10.0 mi WSW 8.1 mph - N/A   Clear